Time,TemperatureF,DewpointF,PressureIn,WindDirection,WindDirectionDegrees,WindSpeedMPH,WindSpeedGustMPH,Humidity,HourlyPrecipIn,Conditions,Clouds,dailyrainin,SoftwareType,DateUTC
2013-06-30 00:20:00,63.0,-99.9,-100.00,North,0,0.0,-999.0,-999,-99.99,,,-99.99,,2013-06-30 07:20:00,
2013-06-30 01:12:00,63.0,-99.9,-100.00,North,0,0.0,-999.0,-999,-99.99,,,-99.99,,2013-06-30 08:12:00,
2013-06-30 01:20:00,61.0,-99.9,-100.00,WSW,246,0.0,-999.0,-999,-99.99,,,-99.99,,2013-06-30 08:20:00,
2013-06-30 02:12:00,61.0,-99.9,-100.00,WSW,246,0.0,-999.0,-999,-99.99,,,-99.99,,2013-06-30 09:12:00,
2013-06-30 02:20:00,61.0,-99.9,-100.00,North,0,0.0,-999.0,-999,-99.99,,,-99.99,,2013-06-30 09:20:00,
2013-06-30 03:11:00,61.0,-99.9,-100.00,North,0,0.0,-999.0,-999,-99.99,,,-99.99,,2013-06-30 10:11:00,
2013-06-30 03:20:00,60.0,-99.9,-100.00,WNW,285,2.0,-999.0,-999,-99.99,,,-99.99,,2013-06-30 10:20:00,
2013-06-30 04:11:00,60.0,-99.9,-100.00,WNW,285,2.0,-999.0,-999,-99.99,,,-99.99,,2013-06-30 11:11:00,
2013-06-30 05:12:00,60.0,-99.9,-100.00,NW,317,0.0,-999.0,-999,-99.99,,,-99.99,,2013-06-30 12:12:00,
2013-06-30 05:20:00,59.0,-99.9,-100.00,North,0,0.0,-999.0,-999,-99.99,,,-99.99,,2013-06-30 12:20:00,
2013-06-30 06:12:00,59.0,-99.9,-100.00,North,0,0.0,-999.0,-999,-99.99,,,-99.99,,2013-06-30 13:12:00,
2013-06-30 06:20:00,59.0,-99.9,-100.00,NW,315,5.0,-999.0,-999,-99.99,,,-99.99,,2013-06-30 13:20:00,
2013-06-30 07:11:00,59.0,-99.9,-100.00,NW,315,5.0,-999.0,-999,-99.99,,,-99.99,,2013-06-30 14:11:00,
2013-06-30 07:20:00,59.0,-99.9,-100.00,North,355,2.0,-999.0,-999,-99.99,,,-99.99,,2013-06-30 14:20:00,
2013-06-30 08:12:00,59.0,-99.9,-100.00,North,355,2.0,-999.0,-999,-99.99,,,-99.99,,2013-06-30 15:12:00,
2013-06-30 08:20:00,60.0,-99.9,-100.00,NNE,23,2.0,-999.0,-999,-99.99,,,-99.99,,2013-06-30 15:20:00,
2013-06-30 09:01:00,60.0,-99.9,-100.00,NNE,23,2.0,-999.0,-999,-99.99,,,-99.99,,2013-06-30 16:01:00,
2013-06-30 09:11:00,60.0,-99.9,-100.00,NNE,23,2.0,-999.0,-999,-99.99,,,-99.99,,2013-06-30 16:11:00,
2013-06-30 18:20:00,81.0,-99.9,-100.00,NNW,327,0.0,-999.0,-999,-99.99,,,-99.99,,2013-07-01 01:20:00,
2013-06-30 19:12:00,81.0,-99.9,-100.00,NNW,327,0.0,-999.0,-999,-99.99,,,-99.99,,2013-07-01 02:12:00,
2013-06-30 20:12:00,79.0,-99.9,-100.00,NW,318,6.0,-999.0,-999,-99.99,,,-99.99,,2013-07-01 03:12:00,
2013-06-30 20:20:00,77.0,-99.9,-100.00,West,262,0.0,-999.0,-999,-99.99,,,-99.99,,2013-07-01 03:20:00,
2013-06-30 21:11:00,77.0,-99.9,-100.00,West,262,0.0,-999.0,-999,-99.99,,,-99.99,,2013-07-01 04:11:00,
2013-06-30 23:20:00,67.0,-99.9,-100.00,North,351,6.0,-999.0,-999,-99.99,,,-99.99,,2013-07-01 06:20:00,